Temperature
8 7 7 7 7 8 8 7 7 7 8 7 6 7 8 7 7 7 7 7 8 9 9 9 9 10 10 10 10 10 10 9 9 9 9 9 9 9 9 9 9 9 9 9
6 7 7 7 7 8 7 7 6 7 7 7 6 6 7 6 6 7 6 7 7 8 8 9 9 9 9 10 9 9 9 9 9 9 9 9 9 9 9 9 8 8 8 8
7 7 7 7 7 7 7 6 7 7 6 6 6 6 6 6 6 6 6 7 7 7 8 8 9 9 9 9 9 9 9 9 9 9 9 8 8 8 8 8 8 8 8 8
6 6 7 7 6 6 6 7 7 6 6 5 6 5 6 5 5 5 5 6 6 7 7 8 8 8 8 9 9 9 9 9 9 8 8 8 8 8 8 8 8 8 8 8
6 6 6 6 6 6 6 6 6 6 5 5 5 5 5 5 5 5 4 5 6 6 7 7 7 8 8 8 8 8 8 8 8 8 8 8 8 7 7 7 7 7 7 7
5 6 6 6 6 6 6 6 5 4 4 5 5 5 5 4 5 5 4 5 5 5 6 6 7 7 7 7 8 8 8 8 8 7 7 7 7 7 7 7 6 6 6 7
5 5 5 6 6 6 6 5 5 5 4 5 5 5 5 5 4 4 4 4 4 5 5 5 6 7 7 7 7 7 7 7 7 7 7 7 7 6 6 6 6 6 6 6
4 4 5 5 5 5 5 5 5 5 5 4 4 4 4 4 4 4 4 4 4 4 4 5 5 6 6 6 6 6 6 6 6 6 6 6 6 6 6 6 6 6 6 6
3 4 4 5 5 5 5 4 5 4 3 3 4 3 3 3 3 3 3 3 4 4 4 4 5 5 5 6 6 6 6 6 6 6 6 6 5 5 5 5 5 5 5 5
2 2 3 4 5 5 5 4 3 4 4 4 4 4 3 3 3 3 2 2 3 3 3 4 4 5 5 5 5 5 5 5 5 5 5 5 5 5 5 5 5 5 5 5
2 2 2 3 3 3 3 3 3 3 3 4 4 4 3 3 3 2 2 2 2 3 3 3 3 4 4 4 4 5 5 5 4 4 4 4 4 4 4 4 4 4 4 4
1 1 1 2 3 3 3 3 2 3 2 2 3 3 3 2 2 1 1 2 2 2 2 2 3 3 3 3 4 4 4 4 4 4 4 4 4 4 4 4 4 4 4 4
1 0 1 2 2 2 2 2 2 2 1 1 2 3 2 1 1 1 1 1 1 2 2 2 2 2 2 3 3 3 3 3 3 3 3 3 3 3 3 3 3 3 3 3
1 -0 0 1 1 1 1 1 1 1 1 1 1 2 1 1 0 0 0 1 1 1 1 1 1 1 1 2 2 2 2 2 3 3 3 3 2 2 3 3 3 3 3 3
-0 -1 -0 -0 1 1 1 1 1 1 1 1 1 1 1 0 -0 -0 -0 0 -0 -0 -0 -0 0 0 1 1 1 1 2 2 2 2 2 2 2 2 2 2 2 2 2 2
-1 -1 -1 -0 1 0 0 0 0 0 -0 -0 0 0 -0 -0 -0 -1 -1 -1 -1 -1 -1 -1 -1 -0 0 0 1 1 1 1 1 1 1 1 1 1 1 1 1 1 1 1
-2 -2 -1 -1 -0 0 -1 -1 -1 -1 -1 -1 -1 -1 -1 -1 -1 -2 -2 -1 -1 -1 -1 -1 -1 -1 -0 -0 0 0 0 0 1 1 1 1 1 1 1 1 1 1 1 1
-3 -2 -2 -2 -1 -1 -1 -1 -1 -1 -2 -2 -2 -2 -2 -2 -2 -2 -1 -2 -1 -1 -1 -1 -1 -1 -1 -1 -0 -0 -0 -0 0 0 0 0 0 0 0 0 0 0 0 0
-3 -3 -3 -2 -2 -2 -1 -2 -2 -2 -2 -3 -3 -3 -3 -2 -2 -2 -2 -2 -2 -1 -1 -1 -1 -1 -1 -1 -1 -1 -1 -1 -1 -1 -0 -0 -0 -0 -0 -0 -0 -0 -0 -0
-3 -4 -3 -3 -2 -2 -2 -3 -3 -2 -2 -3 -3 -3 -4 -3 -3 -3 -3 -3 -2 -2 -2 -2 -2 -2 -2 -2 -2 -1 -1 -1 -1 -1 -1 -1 -1 -1 -1 -1 -1 -1 -1 -1
-4 -4 -4 -4 -4 -3 -4 -3 -2 -3 -3 -4 -4 -4 -4 -4 -4 -4 -4 -3 -3 -3 -2 -2 -2 -2 -2 -2 -2 -2 -2 -2 -2 -2 -2 -1 -1 -2 -2 -2 -1 -1 -1 -1
-5 -5 -5 -5 -4 -4 -4 -4 -4 -4 -4 -4 -5 -5 -5 -5 -4 -4 -4 -4 -4 -3 -3 -3 -3 -3 -3 -3 -3 -3 -2 -2 -2 -2 -2 -2 -2 -2 -2 -2 -2 -2 -2 -2
-5 -5 -5 -5 -4 -5 -4 -5 -4 -4 -5 -5 -5 -5 -5 -5 -5 -5 -5 -4 -4 -4 -4 -4 -4 -4 -3 -3 -3 -3 -3 -3 -3 -3 -3 -2 -2 -2 -3 -3 -3 -3 -3 -3
-6 -6 -6 -6 -6 -5 -5 -5 -5 -5 -5 -5 -6 -6 -6 -6 -6 -6 -6 -5 -5 -5 -5 -5 -4 -4 -4 -4 -4 -4 -4 -4 -3 -3 -3 -3 -3 -3 -3 -3 -3 -3 -3 -3
-6 -6 -6 -6 -6 -6 -5 -5 -6 -6 -6 -6 -6 -6 -6 -6 -6 -6 -6 -6 -6 -6 -5 -5 -5 -5 -5 -4 -4 -4 -4 -4 -4 -4 -4 -4 -4 -4 -4 -4 -4 -4 -4 -4
-7 -7 -7 -6 -6 -6 -6 -6 -6 -6 -6 -6 -7 -6 -6 -7 -7 -7 -7 -6 -6 -6 -6 -6 -5 -5 -5 -5 -5 -5 -5 -5 -5 -5 -4 -4 -4 -4 -4 -5 -4 -4 -4 -4
Wind_Speed
1 2 4 7 8 4 3 4 6 6 3 3 8 12 12 6 4 5 5 5 5 6 4 2 2 1 1 1 1 2 2 2 3 3 3 2 2 1 1 1 2 3 3 4
2 4 6 3 4 4 4 5 6 5 2 4 6 11 10 5 5 6 6 6 6 4 2 2 1 1 1 2 1 2 2 3 3 3 3 2 2 2 2 1 2 2 3 3
6 4 2 3 2 4 6 7 6 6 5 2 4 8 5 3 2 2 3 4 4 5 5 4 2 2 1 1 2 2 2 3 3 3 3 3 2 2 1 1 1 1 2 3
4 3 1 2 4 4 7 5 6 4 2 4 1 5 6 4 4 4 5 4 4 4 4 3 3 2 2 2 1 1 2 2 3 3 4 5 3 2 2 2 1 1 2 2
4 2 2 3 5 4 5 3 4 4 4 3 2 4 7 2 4 6 5 4 4 3 3 3 3 3 1 1 1 1 2 2 2 3 4 5 3 2 2 2 2 1 1 1
4 2 2 4 3 3 1 2 2 2 2 5 6 5 7 3 4 5 5 4 3 1 0 0 1 1 1 2 2 2 2 2 2 3 3 4 4 3 3 2 2 1 1 1
5 3 2 0 1 1 2 2 2 2 1 7 3 5 7 4 3 3 4 3 2 0 1 1 1 1 2 2 2 2 2 2 3 3 3 3 3 4 3 2 2 1 1 0
3 6 3 1 2 3 4 5 4 4 5 4 2 6 5 3 4 3 3 3 3 2 2 1 1 2 2 2 2 2 3 3 3 3 3 2 3 2 2 1 1 1 1 1
2 5 3 3 2 3 2 4 3 3 2 4 5 5 5 4 5 5 5 4 3 2 2 1 2 2 2 2 2 2 3 3 3 3 3 3 3 2 2 1 1 1 0 0
1 6 5 4 2 1 2 3 2 2 3 5 5 4 3 4 5 5 5 4 3 3 2 2 2 2 2 2 3 3 4 3 2 3 3 3 2 2 2 2 1 0 1 1
1 3 5 3 2 3 0 1 1 2 3 3 4 4 2 2 3 4 4 4 2 2 1 2 2 3 3 3 4 4 4 4 3 3 3 3 2 2 2 1 1 0 1 1
1 1 4 6 4 2 2 3 2 3 4 3 3 5 3 2 4 4 4 4 3 3 3 3 3 3 4 4 3 3 3 4 3 3 3 3 2 2 2 1 1 1 1 1
2 1 4 5 2 3 1 1 2 2 2 3 4 5 4 6 6 6 5 4 4 4 4 5 4 3 3 3 3 3 3 3 3 3 3 3 3 2 1 1 1 1 1 1
2 2 5 7 6 3 5 5 3 2 3 5 6 7 7 7 7 7 6 4 4 4 4 4 4 4 3 3 3 3 3 3 3 3 3 3 2 2 1 1 1 0 0 0
1 3 5 8 8 6 6 6 4 4 5 6 7 6 7 7 6 6 4 4 5 5 5 4 4 4 4 4 3 3 2 3 2 2 3 3 2 2 2 2 1 1 1 1
1 3 4 6 5 5 6 5 5 5 5 5 6 7 6 6 5 6 5 4 4 4 4 4 4 4 4 3 3 2 2 2 2 2 2 2 3 2 1 1 1 1 1 1
2 2 2 5 6 5 5 4 3 2 2 2 5 7 6 7 6 5 5 5 4 4 4 3 3 3 3 2 2 2 2 2 2 2 2 2 2 2 2 1 2 1 1 1
4 3 2 4 3 4 3 1 1 2 1 2 3 5 6 6 5 3 4 4 5 5 4 4 4 3 3 3 3 2 2 2 2 3 2 2 2 2 2 1 1 1 1 1
3 3 2 2 3 5 3 3 3 2 3 4 4 7 8 6 4 3 5 6 5 5 4 3 3 3 3 3 3 3 3 3 3 3 3 3 2 2 3 2 1 1 1 1
2 2 1 1 2 3 3 6 6 1 2 5 6 7 8 7 4 5 8 8 7 6 4 4 4 4 3 3 3 3 3 3 3 3 3 3 2 2 2 2 2 1 1 1
2 2 0 2 3 4 4 8 4 1 4 7 6 6 5 4 3 6 8 7 6 5 5 4 3 3 3 3 3 3 3 3 3 3 3 3 3 2 2 2 2 1 1 1
1 1 1 1 2 5 6 4 2 3 5 5 6 6 5 5 6 7 7 7 7 6 6 5 4 4 4 4 3 3 3 4 4 3 3 3 3 2 2 2 2 1 1 1
2 3 2 4 3 2 2 2 2 3 4 5 5 6 5 5 7 7 7 6 6 5 5 4 4 4 4 4 3 2 3 3 3 3 3 3 3 3 2 2 2 1 1 1
3 1 1 2 3 4 4 4 4 4 4 5 5 5 5 5 6 7 7 6 5 5 4 4 4 4 4 4 4 3 3 3 3 3 3 3 2 3 3 2 2 2 1 1
3 1 1 3 4 5 4 4 5 5 5 6 6 5 5 5 6 5 6 6 5 5 4 4 3 4 4 4 4 4 4 3 3 3 3 3 3 2 3 3 2 3 2 2
1 2 2 4 4 4 6 5 5 5 6 6 6 7 6 5 5 6 5 5 4 4 4 4 4 4 4 4 4 4 4 3 3 3 3 3 3 2 2 3 4 5 4 5
Wind_Direction
39 111 211 218 209 216 198 225 258 260 255 233 249 266 274 265 244 243 240 238 237 239 247 225 203 173 132 117 124 164 171 176 162 162 160 158 165 155 125 103 110 126 129 127
35 239 239 218 207 223 225 250 261 280 265 241 268 273 274 254 232 230 231 235 235 240 258 239 193 149 161 167 169 172 181 178 175 173 171 165 162 165 158 125 98 116 133 134
214 250 230 182 206 227 242 229 241 262 319 298 306 295 274 270 245 273 265 251 238 222 219 216 202 202 186 181 193 190 192 180 170 156 137 120 100 84 89 106 106 92 127 135
254 277 208 199 226 213 254 237 238 249 276 273 211 284 281 274 297 302 297 279 263 246 222 204 193 195 204 211 197 176 173 165 160 147 145 148 149 157 178 172 160 90 107 120
265 264 204 223 242 210 240 277 250 240 216 262 232 235 279 310 298 299 297 286 282 245 207 196 193 193 198 173 143 139 136 145 149 148 154 153 144 152 142 138 132 118 94 100
272 278 222 232 246 202 229 18 17 74 121 253 225 207 274 258 275 298 304 302 301 261 200 191 143 120 75 72 79 95 123 130 137 143 149 153 151 142 130 129 150 155 152 124
314 303 297 288 341 350 96 90 357 329 260 249 203 211 252 270 286 281 294 310 327 48 87 60 58 75 76 71 71 89 116 118 123 128 132 145 151 149 155 164 161 165 170 162
297 289 281 296 210 216 215 175 188 228 243 277 249 231 259 304 335 346 357 4 26 37 46 55 50 79 85 73 68 81 101 100 106 114 116 113 117 127 131 136 142 168 194 195
280 272 305 296 270 177 199 216 197 181 236 255 256 274 307 346 358 5 7 18 22 26 33 28 40 61 73 74 63 72 92 88 85 90 93 91 94 100 105 103 93 135 105 105
255 278 283 299 336 306 194 181 118 176 229 254 269 267 275 313 328 346 352 350 351 5 18 33 41 48 59 70 65 70 75 82 84 83 83 86 82 86 90 98 103 81 56 66
328 258 299 330 220 234 246 172 196 210 217 221 261 270 273 254 311 324 319 333 346 3 32 35 30 40 53 60 66 66 67 66 62 68 79 80 77 74 78 88 91 103 77 79
315 230 272 265 265 271 209 196 170 212 251 231 247 272 341 350 351 353 344 354 10 32 30 33 36 44 48 52 58 60 60 63 56 56 71 73 73 75 74 64 47 58 60 59
320 314 317 324 331 15 338 291 271 244 224 223 230 262 351 9 11 6 358 359 14 29 28 29 34 33 33 37 49 52 51 49 47 55 63 62 56 59 54 28 13 47 63 56
330 233 227 245 269 286 285 298 292 214 224 243 243 269 317 341 343 344 349 352 12 25 33 35 29 17 17 23 34 40 34 33 35 46 58 58 47 44 39 20 9 20 90 111
34 253 255 267 276 273 274 289 286 242 238 233 255 268 297 313 319 328 340 3 19 19 20 21 19 10 16 17 17 26 29 32 38 47 49 39 29 34 39 35 26 22 27 16
354 270 282 280 272 277 274 292 274 269 274 267 279 284 311 324 340 345 349 5 9 3 357 359 5 8 11 7 358 3 15 22 40 50 38 30 29 28 32 29 36 34 24 12
272 259 282 278 296 303 280 283 253 239 277 262 268 281 324 334 334 335 344 353 343 341 342 341 343 344 343 346 341 336 346 18 43 42 35 29 25 18 7 15 33 27 9 356
221 230 246 284 326 264 257 359 332 218 308 334 317 326 327 314 311 326 350 345 337 336 334 333 332 339 346 352 359 13 28 32 33 31 25 18 15 5 359 9 9 343 343 352
201 200 236 259 270 274 314 347 334 270 295 6 347 340 341 337 338 344 359 350 332 322 318 327 336 346 0 5 9 30 34 32 26 11 358 350 350 346 348 341 326 324 347 351
65 116 168 235 254 264 307 321 314 215 298 0 354 345 345 356 347 320 337 340 340 345 350 359 2 7 16 8 17 42 34 25 3 345 338 339 340 332 323 317 308 317 321 325
9 25 206 233 255 275 316 325 356 103 304 332 335 331 337 341 305 311 328 339 347 354 358 8 14 10 3 7 25 37 24 2 344 345 345 347 343 330 316 320 317 321 333 356
202 211 236 197 244 276 340 17 54 287 315 328 333 332 328 325 328 333 339 346 351 355 358 4 9 3 2 11 26 25 3 347 351 353 352 349 343 336 339 346 333 333 344 351
211 206 209 207 224 284 327 331 318 331 326 330 332 333 333 332 333 336 339 343 347 349 351 355 2 1 359 2 11 4 341 344 354 357 351 347 348 349 346 346 339 333 324 312
305 342 211 270 282 305 320 334 343 342 329 330 336 337 341 334 332 335 337 340 345 347 349 352 359 360 350 351 357 352 340 346 0 358 348 347 354 355 353 347 343 334 308 293
280 299 288 274 294 318 322 338 336 338 345 345 345 344 342 339 335 332 331 334 336 342 348 352 350 341 339 346 352 351 349 353 358 356 352 350 354 357 358 351 341 330 306 289
270 231 240 263 283 282 292 315 333 339 337 334 336 340 341 340 330 330 329 330 334 339 343 346 344 339 339 344 347 349 349 352 354 350 350 345 345 348 353 354 349 353 348 342
Height
1488 1492 1493 1492 1492 1493 1495 1497 1497 1493 1490 1491 1489 1485 1479 1478 1478 1477 1477 1477 1477 1478 1480 1481 1483 1484 1485 1486 1487 1489 1490 1492 1493 1494 1496 1497 1499 1501 1502 1503 1504 1506 1507 1508
1492 1492 1489 1490 1491 1492 1494 1495 1495 1491 1489 1490 1488 1483 1476 1475 1474 1474 1473 1473 1474 1475 1476 1477 1479 1480 1481 1483 1484 1485 1487 1489 1490 1491 1493 1495 1497 1498 1500 1501 1502 1503 1504 1505
1491 1490 1488 1489 1491 1492 1492 1493 1492 1492 1490 1488 1488 1481 1475 1472 1471 1471 1470 1470 1470 1470 1471 1473 1475 1477 1478 1480 1481 1482 1484 1485 1487 1489 1490 1492 1494 1496 1497 1498 1499 1501 1502 1503
1491 1489 1488 1489 1490 1490 1491 1488 1488 1489 1493 1494 1491 1490 1475 1472 1470 1468 1467 1466 1466 1467 1468 1470 1472 1474 1475 1477 1478 1480 1481 1482 1484 1486 1487 1489 1490 1492 1493 1495 1497 1498 1499 1500
1490 1488 1488 1489 1488 1489 1488 1486 1487 1488 1491 1494 1492 1493 1478 1474 1471 1467 1465 1464 1463 1464 1465 1467 1469 1471 1473 1474 1476 1477 1478 1480 1481 1483 1485 1486 1488 1489 1491 1493 1494 1495 1497 1498
1490 1488 1487 1487 1486 1487 1487 1488 1488 1491 1493 1492 1488 1491 1479 1476 1470 1466 1464 1463 1462 1463 1464 1465 1467 1469 1470 1472 1473 1474 1476 1477 1479 1481 1482 1484 1486 1487 1489 1490 1491 1493 1494 1495
1492 1489 1486 1486 1487 1486 1487 1491 1494 1493 1495 1487 1484 1485 1477 1470 1468 1466 1464 1463 1462 1463 1463 1464 1465 1467 1468 1470 1471 1472 1474 1475 1477 1478 1480 1482 1484 1485 1486 1488 1489 1490 1491 1492
1498 1495 1488 1486 1486 1488 1487 1488 1493 1495 1493 1489 1485 1483 1475 1469 1467 1465 1464 1463 1463 1463 1463 1464 1465 1466 1467 1469 1470 1471 1472 1473 1475 1477 1478 1480 1482 1483 1484 1485 1486 1488 1489 1489
1501 1494 1487 1485 1485 1486 1487 1488 1487 1494 1495 1494 1486 1481 1474 1468 1466 1465 1464 1463 1462 1462 1463 1464 1464 1465 1466 1468 1469 1470 1471 1472 1474 1475 1477 1478 1480 1481 1482 1483 1484 1485 1486 1487
1502 1499 1490 1487 1485 1484 1485 1487 1491 1492 1490 1486 1481 1480 1476 1470 1468 1467 1466 1464 1463 1463 1463 1464 1464 1465 1466 1467 1468 1469 1470 1471 1473 1474 1475 1477 1478 1479 1480 1481 1482 1483 1484 1484
1502 1502 1494 1490 1488 1488 1488 1489 1488 1490 1488 1487 1484 1479 1472 1471 1469 1468 1466 1465 1464 1464 1463 1464 1464 1465 1465 1466 1467 1468 1469 1471 1472 1473 1474 1475 1476 1477 1479 1479 1480 1481 1481 1482
1503 1503 1499 1492 1487 1486 1486 1487 1489 1492 1491 1489 1485 1482 1471 1471 1470 1469 1467 1466 1465 1465 1464 1464 1464 1464 1465 1465 1466 1467 1468 1470 1471 1472 1473 1474 1475 1475 1476 1477 1478 1478 1479 1479
1503 1504 1501 1493 1491 1490 1489 1489 1489 1489 1490 1490 1487 1482 1473 1472 1470 1470 1469 1467 1466 1465 1465 1465 1464 1464 1464 1465 1466 1466 1468 1469 1470 1471 1472 1472 1473 1474 1474 1475 1475 1476 1476 1476
1501 1503 1503 1499 1494 1493 1492 1490 1489 1490 1491 1488 1483 1479 1476 1474 1472 1471 1470 1469 1467 1466 1465 1465 1464 1464 1464 1465 1465 1466 1467 1468 1469 1470 1470 1471 1471 1472 1472 1473 1473 1473 1473 1474
1502 1502 1500 1496 1493 1492 1491 1489 1488 1488 1486 1486 1481 1480 1478 1476 1475 1473 1471 1469 1468 1466 1466 1465 1464 1464 1464 1464 1465 1465 1466 1467 1468 1469 1469 1469 1470 1470 1470 1470 1471 1471 1471 1471
1502 1502 1499 1495 1490 1490 1489 1488 1487 1486 1486 1484 1481 1480 1478 1477 1475 1473 1471 1470 1468 1467 1466 1466 1465 1464 1464 1464 1464 1465 1465 1466 1467 1467 1467 1468 1468 1468 1468 1468 1469 1469 1469 1469
1503 1503 1501 1496 1491 1487 1490 1489 1487 1487 1487 1486 1485 1482 1479 1477 1475 1474 1472 1470 1469 1468 1467 1466 1465 1464 1464 1464 1464 1464 1464 1465 1465 1465 1466 1466 1466 1466 1466 1467 1467 1467 1467 1467
1502 1502 1502 1499 1496 1496 1491 1488 1486 1486 1486 1486 1484 1482 1480 1478 1475 1473 1472 1470 1469 1468 1467 1466 1465 1464 1464 1464 1463 1463 1463 1464 1464 1464 1464 1464 1464 1465 1465 1465 1465 1465 1465 1465
1498 1501 1503 1501 1499 1493 1489 1488 1488 1488 1486 1486 1485 1482 1479 1477 1474 1472 1472 1471 1469 1467 1466 1465 1464 1464 1463 1463 1462 1462 1462 1462 1462 1462 1462 1463 1463 1463 1463 1463 1463 1463 1462 1462
1499 1500 1504 1502 1499 1495 1494 1490 1487 1488 1488 1487 1485 1483 1481 1478 1477 1475 1472 1470 1468 1466 1465 1464 1463 1463 1462 1462 1462 1461 1461 1461 1461 1461 1461 1461 1461 1461 1461 1461 1461 1460 1460 1460
1504 1505 1506 1505 1503 1497 1495 1490 1487 1493 1492 1489 1486 1484 1482 1481 1480 1477 1472 1470 1468 1466 1465 1464 1463 1462 1462 1461 1461 1461 1460 1460 1460 1460 1460 1460 1460 1460 1459 1459 1458 1458 1458 1458
1505 1507 1508 1507 1506 1503 1495 1492 1494 1494 1491 1488 1486 1484 1482 1480 1477 1475 1472 1470 1467 1465 1464 1463 1462 1461 1461 1461 1461 1460 1460 1460 1460 1459 1459 1458 1458 1458 1457 1457 1456 1456 1456 1455
1505 1505 1504 1505 1503 1499 1496 1495 1494 1492 1490 1488 1485 1483 1481 1478 1476 1473 1471 1469 1467 1465 1464 1463 1462 1461 1461 1460 1460 1459 1459 1459 1458 1458 1457 1457 1456 1456 1455 1455 1454 1453 1453 1453
1505 1503 1503 1502 1498 1497 1495 1494 1493 1491 1490 1487 1485 1482 1480 1477 1475 1472 1470 1468 1466 1464 1463 1462 1461 1460 1460 1459 1459 1459 1458 1457 1457 1456 1455 1455 1454 1453 1453 1452 1452 1451 1451 1450
1505 1504 1503 1501 1498 1496 1494 1494 1492 1490 1488 1485 1483 1481 1479 1476 1474 1472 1470 1468 1466 1464 1463 1461 1460 1460 1459 1458 1458 1457 1456 1456 1455 1454 1453 1452 1452 1451 1450 1450 1450 1449 1449 1448
1504 1504 1503 1500 1498 1497 1494 1492 1491 1489 1486 1484 1482 1479 1477 1476 1473 1471 1469 1467 1465 1463 1462 1461 1460 1459 1458 1457 1456 1456 1455 1454 1453 1452 1451 1450 1450 1449 1448 1447 1447 1446 1446 1446